sat.trackr.live / text

‹ back to catalog

USA 283

NORAD 43339 · 2018-036A

PAYLOAD ACTIVE UNKNOWN

§ Identity

Operator
Country
US
Launch date
2018-04-14
Launch site
AFETR
Launch vehicle
Mass (kg)
RCS (m²)

Purposes: comms

External: N2YO · Heavens-Above · Gunter

§ Orbital elements

Epoch: 2026-05-23T07:53:36.209184Z

Period
1,436.11 min
Inclination
0.0094°
Eccentricity
0.0000117
Mean motion
1.00271058 rev/d
Perigee alt
35,786.3 km
Apogee alt
35,787.3 km
Semi-major
42,164.9 km
B*
0.0000e+0
RAAN
309.1271°
Arg perigee
90.3436°
Mean anomaly
93.9667°
Rev number
2,504

§ Raw data

USA 2831 43339U 18036A   26143.32889131 -.00000325  00000+0  00000+0 0  99902 43339   0.0094 309.1271 0000117  90.3436  93.9667  1.00271058 25049

JSON: /api/v1/satellites/43339 · /tle

For live sub-satellite position, see the globe view (requires WebGL).

§ Visibility from observer

Set your observer location to see the next 7 days of passes ≥ 10°. The values pass through the URL so the page stays shareable.

No JS? Fill the form by hand. The geolocation button needs JavaScript.